Wind_Speed
8 11 7 7 7 8 9 10 10 10 10 9 10 11 12 13 13 14 14 13 11 10 8 8 9 9 9 8 7 7 7 4 3 5 5 5 5 8 9 8 8 7 8
10 8 6 6 7 8 9 11 11 11 10 10 10 11 12 12 13 15 14 13 12 11 10 8 7 7 5 6 5 5 7 6 4 5 7 6 7 9 8 7 8 7 6
8 6 5 6 8 8 9 11 11 11 11 10 10 10 11 11 12 14 13 12 10 8 7 6 6 5 5 4 4 4 6 7 8 7 7 8 9 9 6 10 8 6 5
6 5 6 7 9 8 9 11 11 10 11 11 11 10 11 12 12 11 10 9 7 6 5 4 4 3 2 4 3 3 5 8 9 8 9 12 13 8 9 8 8 7 6
5 5 5 8 9 8 10 12 11 10 11 12 11 11 12 11 11 10 9 8 7 7 6 6 6 6 4 3 2 3 7 10 13 13 13 14 13 11 9 8 7 6 6
3 5 4 9 9 9 10 12 11 10 11 11 11 13 13 12 12 11 11 11 11 12 12 12 11 10 7 4 4 4 13 12 14 15 13 11 10 9 7 6 5 5 6
4 4 6 8 9 9 10 11 11 11 11 11 13 14 14 14 15 14 14 15 15 14 13 12 12 13 12 8 11 17 18 16 16 13 12 11 9 8 6 5 5 5 5
5 5 8 9 9 9 9 11 11 11 12 14 15 15 15 15 16 17 16 16 15 15 15 16 16 19 17 15 19 19 16 16 14 12 10 10 9 7 5 4 4 5 5
4 7 8 8 8 9 9 11 12 13 16 17 18 18 18 18 16 14 16 15 15 16 16 18 20 22 23 23 20 19 16 15 13 12 12 12 7 7 6 6 5 4 4
5 7 8 8 8 10 12 12 13 18 19 19 20 20 18 16 13 14 15 16 15 15 16 19 20 21 21 22 21 16 15 13 11 10 8 5 4 2 2 4 5 5 4
5 7 8 8 9 11 12 12 17 22 23 23 21 19 16 15 13 14 14 15 14 18 18 17 17 19 19 21 19 17 12 12 9 7 6 8 7 6 5 4 3 4 4
7 8 7 8 11 12 13 16 22 25 23 22 19 17 15 13 15 14 14 11 15 16 17 17 16 17 16 16 17 16 14 13 12 10 7 8 10 11 10 7 5 4 4
7 8 8 10 12 14 17 19 23 23 22 18 15 15 15 12 12 13 10 10 14 13 15 13 14 14 12 13 14 14 12 11 12 12 11 10 11 11 10 11 10 10 9
5 8 10 12 14 15 19 20 22 23 17 19 14 9 11 9 10 11 12 8 10 12 11 11 11 11 11 7 9 10 9 13 13 11 11 14 12 12 11 11 14 13 12
6 9 11 14 14 17 20 18 19 14 16 13 13 13 10 9 10 8 8 7 5 8 8 9 9 9 9 6 7 8 9 9 10 11 13 13 13 12 12 13 13 13 14
7 8 12 14 15 18 21 19 16 17 15 13 13 10 11 10 10 10 8 9 9 8 7 10 10 9 8 8 6 6 6 5 7 11 13 13 14 12 12 12 13 12 12
9 10 12 14 16 18 18 19 19 18 18 14 11 11 10 12 12 12 11 12 12 10 10 11 7 3 5 6 6 4 5 6 6 9 11 12 13 13 14 14 13 13 12
10 12 11 15 16 17 17 18 17 16 19 13 11 10 8 11 11 10 11 10 10 8 9 8 7 8 8 8 9 7 7 7 5 6 9 9 8 12 12 13 14 11 12
13 14 13 16 18 18 17 16 16 15 15 13 12 11 10 10 8 9 10 8 9 9 9 8 8 11 10 10 9 8 7 8 5 6 7 8 8 10 9 11 12 11 11
16 16 16 19 18 17 17 16 15 13 13 12 12 11 10 10 8 7 10 10 11 11 9 10 10 11 11 13 14 10 8 6 7 8 7 8 8 9 12 10 9 11 11
20 18 18 19 19 19 17 17 15 13 12 11 9 9 8 9 9 7 10 11 10 10 12 11 10 11 15 15 14 14 12 10 13 9 8 7 9 9 10 11 12 11 10
24 22 22 21 20 19 19 17 15 13 11 10 9 9 8 7 7 8 8 10 10 10 11 11 11 11 15 15 15 15 15 14 14 11 7 6 6 8 11 11 12 13 12
24 22 22 23 21 20 18 15 14 13 11 10 8 7 8 7 5 6 6 7 7 8 8 9 11 9 12 10 11 13 13 14 15 13 9 6 9 10 13 12 14 16 15
22 23 22 22 20 19 17 16 15 16 12 9 8 8 8 8 5 5 3 4 5 4 7 9 8 9 8 7 8 10 11 9 11 11 9 9 9 10 14 15 15 15 13
20 20 21 21 21 19 17 17 17 14 10 10 10 8 9 9 6 4 4 1 4 5 5 5 7 6 6 6 5 7 10 8 6 6 9 8 7 7 11 11 13 11 10
17 19 18 19 19 19 19 19 17 14 12 11 9 8 9 8 7 4 1 1 2 4 4 5 5 5 5 5 4 6 8 7 8 7 5 7 6 5 6 9 8 8 10
Wind_Direction
107 122 127 127 124 132 133 126 128 129 118 114 107 111 113 103 106 110 109 109 108 111 103 91 88 82 77 79 74 68 57 64 103 136 155 173 164 146 135 127 122 110 95
119 111 114 125 131 136 132 124 128 127 125 118 112 118 119 117 111 108 108 105 101 100 94 86 82 87 94 90 74 56 50 61 88 117 131 144 144 147 137 138 126 116 97
101 109 124 130 126 134 124 121 127 131 126 119 118 122 132 127 115 113 109 107 105 95 85 79 84 90 107 116 107 98 72 75 89 93 118 125 131 137 132 124 122 128 97
103 117 125 127 129 131 119 122 127 128 120 119 120 127 137 135 126 120 116 115 109 97 89 87 82 89 93 99 127 138 108 86 98 110 118 123 129 131 115 108 103 92 79
97 114 126 132 129 123 122 126 126 125 123 121 131 136 130 129 129 125 120 112 104 96 89 87 82 75 60 64 79 129 140 95 103 110 111 120 118 112 109 102 88 80 70
105 116 133 133 127 124 127 130 126 128 123 129 133 131 125 123 115 109 104 100 96 91 80 73 64 57 52 40 48 105 131 108 100 98 101 109 108 104 100 90 90 71 61
119 125 132 132 132 129 131 132 127 126 123 123 124 122 121 115 110 108 106 102 94 88 83 73 65 53 51 68 82 110 117 106 92 87 95 96 95 96 94 82 69 66 60
140 142 143 140 136 138 132 130 124 123 125 121 121 121 117 112 112 109 108 101 99 94 82 74 65 64 67 87 106 110 114 109 101 94 92 99 85 91 86 85 69 65 54
151 143 152 143 145 136 132 126 128 132 130 124 120 114 109 107 108 111 103 96 94 86 81 77 69 68 76 83 105 103 103 108 110 103 94 106 79 84 84 80 71 63 65
158 146 150 145 148 133 135 129 139 136 125 115 114 111 105 102 101 104 104 108 97 82 74 79 81 78 79 87 89 92 103 109 108 105 105 91 72 78 81 82 68 59 50
151 150 149 146 140 135 134 140 139 130 122 117 110 105 102 101 98 84 90 92 92 88 87 83 85 86 83 83 88 89 99 87 97 95 85 79 71 82 105 107 93 74 55
150 146 151 151 144 139 136 144 133 128 127 116 112 106 99 104 104 97 99 92 92 90 92 87 81 78 80 88 88 92 87 89 89 95 98 84 73 82 85 85 80 67 47
152 147 161 155 147 140 141 144 131 131 121 115 112 105 106 109 108 101 97 75 85 91 86 86 91 86 80 82 91 91 89 91 89 87 91 91 83 79 84 77 74 64 60
160 155 156 158 151 143 147 142 137 131 121 119 101 110 102 104 78 70 72 80 81 86 75 79 71 71 77 64 73 80 85 75 79 80 81 80 83 81 76 75 68 66 65
167 156 155 160 154 149 148 144 138 124 127 119 101 119 123 105 99 88 84 85 68 71 63 65 68 69 69 59 45 62 63 81 85 84 80 83 77 80 79 78 74 69 66
175 164 159 164 155 154 151 147 136 128 123 120 111 110 118 102 94 89 77 78 78 81 78 68 60 63 68 64 48 52 65 67 78 81 80 81 81 80 80 75 75 70 64
187 177 167 169 159 156 157 148 141 134 122 113 110 108 112 103 95 72 88 78 68 63 59 74 68 38 32 62 67 67 69 69 61 76 78 76 81 77 76 76 73 69 66
199 179 173 172 164 160 163 150 146 140 123 125 123 121 113 104 95 104 84 74 65 56 55 44 60 59 60 56 67 65 45 59 69 82 91 86 79 73 69 73 66 60 60
194 176 179 177 167 166 166 161 153 140 129 133 135 133 125 106 96 90 60 73 58 54 59 64 66 82 80 70 66 70 27 29 67 107 100 84 84 88 62 45 58 52 51
191 181 182 181 173 171 173 166 162 150 140 137 137 129 124 112 93 69 74 60 59 54 77 66 68 65 53 53 59 49 39 27 51 76 90 75 83 81 80 77 65 58 47
189 187 184 187 177 171 178 177 167 160 151 145 146 125 114 108 108 79 73 68 63 61 73 70 71 66 63 61 62 59 62 67 76 67 58 55 64 74 71 77 80 84 79
184 190 185 186 184 179 183 184 171 166 165 164 157 132 122 105 89 71 61 60 58 46 55 64 60 59 60 58 61 64 66 75 81 80 73 69 71 71 78 73 78 80 78
182 186 194 183 185 184 183 183 174 170 180 177 161 139 128 120 104 84 61 56 52 54 47 51 56 50 57 50 59 61 62 64 67 73 72 65 74 85 70 79 84 78 61
183 186 199 188 188 187 185 185 187 189 186 175 180 163 149 149 150 126 85 69 74 54 48 48 44 46 39 26 42 46 41 58 64 69 71 70 72 70 81 87 81 71 62
183 189 196 194 190 195 193 195 197 195 186 189 197 181 170 172 170 177 145 80 78 66 34 44 46 25 20 15 19 32 30 43 76 67 62 76 95 92 94 86 71 63 55
189 183 193 195 196 192 193 195 202 195 193 202 204 186 187 195 187 210 175 37 27 43 36 24 28 25 20 358 3 19 20 22 48 69 63 59 68 60 59 68 53 39 30
Height
5897 5896 5897 5898 5897 5897 5896 5895 5897 5898 5898 5899 5899 5900 5901 5901 5901 5901 5901 5901 5902 5902 5902 5903 5902 5902 5901 5900 5900 5900 5900 5899 5899 5899 5900 5901 5903 5904 5906 5907 5908 5909 5909
5899 5899 5899 5899 5899 5898 5898 5898 5900 5901 5901 5902 5902 5902 5903 5904 5904 5903 5903 5904 5904 5905 5905 5904 5904 5903 5903 5902 5901 5901 5902 5902 5901 5901 5901 5901 5904 5906 5908 5908 5909 5910 5910
5900 5900 5900 5900 5900 5900 5900 5901 5902 5903 5903 5904 5904 5905 5906 5906 5906 5906 5906 5907 5907 5908 5907 5906 5905 5904 5903 5903 5902 5902 5903 5902 5902 5902 5902 5903 5904 5907 5908 5910 5911 5911 5911
5902 5902 5901 5901 5901 5902 5902 5903 5903 5904 5905 5906 5906 5907 5908 5908 5909 5909 5909 5909 5909 5908 5908 5907 5906 5905 5903 5903 5902 5902 5903 5904 5904 5904 5905 5905 5906 5908 5909 5910 5911 5911 5911
5903 5903 5902 5902 5902 5903 5904 5904 5905 5905 5906 5906 5907 5908 5909 5910 5910 5910 5911 5911 5910 5909 5908 5908 5907 5906 5904 5903 5902 5902 5904 5905 5906 5906 5906 5907 5908 5910 5911 5911 5911 5911 5911
5904 5903 5903 5903 5904 5905 5906 5906 5906 5907 5908 5908 5909 5910 5911 5911 5911 5911 5912 5911 5911 5911 5910 5910 5908 5907 5904 5902 5902 5903 5906 5908 5908 5907 5908 5909 5909 5910 5911 5912 5912 5912 5912
5903 5903 5903 5904 5905 5906 5906 5907 5908 5910 5910 5911 5912 5913 5913 5913 5913 5914 5914 5913 5913 5913 5911 5911 5910 5909 5906 5903 5903 5904 5907 5909 5909 5910 5910 5910 5911 5911 5912 5912 5912 5912 5912
5903 5904 5905 5905 5906 5907 5907 5909 5911 5913 5913 5913 5914 5915 5915 5916 5916 5916 5917 5917 5915 5914 5913 5913 5913 5911 5908 5906 5905 5908 5909 5909 5910 5911 5911 5912 5913 5912 5913 5913 5913 5913 5913
5904 5904 5906 5906 5907 5907 5909 5911 5912 5913 5914 5914 5916 5917 5919 5920 5920 5919 5919 5919 5918 5917 5916 5915 5915 5914 5913 5911 5911 5911 5912 5912 5912 5913 5913 5913 5914 5913 5913 5913 5913 5913 5913
5904 5905 5906 5907 5908 5909 5910 5912 5913 5914 5916 5917 5919 5920 5922 5923 5924 5921 5921 5920 5919 5919 5919 5918 5918 5918 5917 5916 5915 5915 5915 5915 5915 5915 5915 5915 5914 5914 5914 5914 5915 5915 5914
5905 5906 5907 5907 5909 5910 5912 5912 5914 5917 5918 5919 5921 5923 5924 5925 5925 5927 5926 5924 5923 5921 5920 5921 5921 5921 5920 5919 5917 5917 5917 5917 5916 5916 5916 5916 5915 5915 5915 5916 5916 5916 5916
5906 5906 5907 5909 5910 5912 5914 5914 5918 5920 5920 5922 5923 5923 5925 5926 5926 5928 5928 5927 5926 5925 5923 5923 5924 5924 5924 5922 5920 5919 5919 5919 5918 5918 5917 5917 5917 5916 5916 5916 5917 5917 5918
5906 5907 5908 5910 5912 5913 5915 5917 5921 5922 5923 5925 5926 5926 5926 5929 5928 5928 5929 5930 5928 5928 5927 5926 5927 5927 5925 5925 5923 5922 5922 5921 5920 5920 5919 5919 5919 5919 5919 5918 5918 5919 5918
5907 5908 5909 5911 5913 5915 5917 5920 5924 5925 5927 5927 5929 5929 5929 5930 5931 5930 5930 5931 5930 5930 5929 5929 5929 5928 5927 5925 5924 5924 5923 5924 5923 5923 5922 5922 5922 5921 5922 5921 5921 5920 5919
5907 5909 5910 5912 5914 5917 5920 5922 5926 5927 5929 5930 5931 5932 5932 5932 5932 5933 5934 5933 5933 5931 5930 5931 5931 5929 5928 5927 5925 5924 5925 5925 5924 5924 5924 5924 5924 5923 5924 5923 5922 5921 5920
5907 5909 5911 5913 5915 5918 5921 5924 5927 5930 5932 5933 5933 5934 5935 5935 5935 5934 5935 5934 5933 5932 5931 5932 5932 5930 5929 5929 5926 5927 5927 5926 5926 5926 5925 5926 5925 5925 5925 5924 5923 5923 5922
5907 5910 5912 5914 5916 5920 5923 5926 5928 5931 5932 5934 5935 5936 5937 5936 5936 5935 5937 5936 5934 5934 5932 5933 5934 5932 5928 5929 5928 5927 5927 5927 5926 5927 5927 5927 5927 5926 5926 5925 5925 5925 5924
5908 5909 5912 5915 5917 5920 5924 5928 5930 5931 5933 5936 5937 5938 5938 5938 5937 5938 5937 5936 5936 5935 5934 5935 5935 5932 5930 5928 5928 5928 5928 5929 5927 5927 5927 5928 5929 5928 5927 5927 5927 5924 5925
5907 5908 5912 5915 5917 5920 5925 5929 5931 5933 5935 5937 5938 5939 5940 5939 5939 5938 5937 5936 5936 5936 5935 5936 5935 5934 5933 5930 5929 5930 5928 5928 5927 5928 5929 5929 5931 5931 5930 5928 5928 5926 5926
5905 5907 5911 5915 5917 5920 5925 5929 5932 5933 5935 5937 5939 5939 5940 5940 5939 5938 5937 5937 5936 5936 5937 5936 5935 5935 5933 5931 5930 5931 5930 5929 5928 5928 5930 5930 5932 5932 5932 5930 5928 5926 5925
5902 5906 5909 5914 5918 5920 5924 5928 5931 5933 5935 5936 5938 5938 5938 5939 5940 5939 5939 5938 5938 5938 5937 5937 5937 5937 5935 5933 5933 5933 5932 5929 5929 5929 5930 5932 5931 5932 5931 5931 5930 5927 5926
5899 5904 5908 5912 5916 5918 5922 5927 5930 5932 5933 5935 5936 5937 5938 5939 5939 5939 5939 5939 5938 5938 5938 5939 5940 5938 5937 5935 5936 5935 5934 5933 5931 5931 5931 5932 5932 5933 5932 5932 5930 5930 5930
5898 5904 5908 5911 5914 5918 5922 5926 5930 5932 5933 5934 5936 5937 5939 5939 5939 5940 5940 5941 5940 5940 5941 5941 5940 5939 5938 5938 5938 5938 5937 5935 5935 5935 5934 5934 5933 5934 5934 5933 5932 5931 5931
5898 5902 5907 5910 5913 5916 5921 5925 5929 5930 5933 5935 5935 5938 5940 5941 5942 5943 5943 5943 5943 5943 5942 5941 5941 5940 5940 5940 5939 5938 5938 5938 5937 5938 5937 5936 5934 5935 5936 5936 5935 5934 5934
5897 5901 5906 5908 5912 5917 5921 5924 5928 5931 5934 5935 5937 5939 5941 5941 5942 5944 5945 5945 5944 5944 5944 5944 5943 5943 5942 5942 5941 5941 5939 5939 5939 5939 5939 5938 5938 5938 5938 5938 5937 5936 5936
5894 5897 5903 5907 5911 5916 5920 5924 5927 5930 5933 5935 5937 5940 5941 5942 5944 5944 5944 5945 5945 5945 5945 5944 5944 5944 5944 5944 5942 5941 5941 5940 5939 5940 5940 5940 5940 5939 5939 5939 5939 5938 5937